Terminal Aerodrome Forecast
Issued by NWS New Orleans/Baton Rouge, LA

Home | Current Version | Previous Version | Text Only | Print | Product List | Glossary On
Versions: 1 2 3 4 5 6 7 8 9 10 11 12 13
000
FTUS44 KLIX 012331
TAFBTR
TAF
KBTR 012331Z 0200/0224 11005KT P6SM BKN250
     FM020100 VRB03KT P6SM BKN250
     FM021400 32004KT P6SM SCT250
     FM021900 12005KT P6SM VCSH SCT040 BKN250=

USA.gov is the U.S. government's official web portal to all federal, state and local government web resources and services.